ANZ324 NZCH-NZHN

Flight info

Callsign ANZ324
Flight time 0h 57m
Altitude 37000
Route GLENN Y175 OPABI Q126 HN
Aircraft A320/M-SDE1E2E3GIRW/LB1

Departure

Time 2026-04-24 19:41
Airport Christchurch International Airport (NZCH)

Arrival

Time 2026-04-24 20:38
Airport Hamilton International Airport (NZHN)
Time Latitude Longitude Altitude Speed Heading
2026-04-24 19:03 -43.48924 172.53722 109 ft 0 kts 130°
2026-04-24 19:30 -43.48923 172.53721 109 ft 2 kts 130°
2026-04-24 19:30 -43.48907 172.53695 108 ft 4 kts 131°
2026-04-24 19:30 -43.48889 172.53666 108 ft 4 kts 128°
2026-04-24 19:31 -43.48877 172.53643 108 ft 4 kts 132°
2026-04-24 19:31 -43.48856 172.53621 108 ft 4 kts 161°
2026-04-24 19:31 -43.48833 172.53619 109 ft 4 kts 211°
2026-04-24 19:31 -43.48827 172.53624 108 ft 0 kts 220°
2026-04-24 19:35 -43.48839 172.53609 109 ft 5 kts 220°
2026-04-24 19:35 -43.48875 172.53567 108 ft 9 kts 220°
2026-04-24 19:35 -43.48932 172.53513 110 ft 10 kts 214°
2026-04-24 19:35 -43.48989 172.53450 114 ft 12 kts 219°
2026-04-24 19:36 -43.49069 172.53357 111 ft 17 kts 219°
2026-04-24 19:36 -43.49164 172.53250 114 ft 18 kts 219°
2026-04-24 19:36 -43.49262 172.53135 115 ft 19 kts 220°
2026-04-24 19:36 -43.49362 172.53019 121 ft 19 kts 220°
2026-04-24 19:37 -43.49465 172.52901 124 ft 20 kts 220°
2026-04-24 19:37 -43.49509 172.52838 126 ft 11 kts 242°
2026-04-24 19:37 -43.49510 172.52758 127 ft 8 kts 276°
2026-04-24 19:37 -43.49507 172.52718 128 ft 0 kts 276°
2026-04-24 19:39 -43.49506 172.52714 124 ft 2 kts 276°
2026-04-24 19:39 -43.49501 172.52656 125 ft 10 kts 276°
2026-04-24 19:39 -43.49491 172.52547 123 ft 8 kts 289°
2026-04-24 19:39 -43.49473 172.52549 123 ft 1 kts 39°
2026-04-24 19:40 -43.49470 172.52551 121 ft 1 kts 38°
2026-04-24 19:40 -43.49331 172.52709 123 ft 66 kts 40°
2026-04-24 19:40 -43.48786 172.53341 115 ft 134 kts 40°
2026-04-24 19:40 -43.47956 172.54282 384 ft 163 kts 38°
2026-04-24 19:41 -43.47059 172.55287 1092 ft 168 kts 34°
2026-04-24 19:41 -43.46014 172.56063 1830 ft 171 kts 24°
2026-04-24 19:41 -43.44855 172.56776 2200 ft 193 kts 22°
2026-04-24 19:41 -43.43528 172.57576 2480 ft 218 kts 22°
2026-04-24 19:42 -43.42066 172.58468 2879 ft 242 kts 23°
2026-04-24 19:42 -43.40484 172.59523 3438 ft 261 kts 33°
2026-04-24 19:42 -43.39149 172.61268 4246 ft 269 kts 47°
2026-04-24 19:42 -43.37659 172.62913 5128 ft 275 kts 28°
2026-04-24 19:43 -43.35875 172.63921 5985 ft 280 kts 19°
2026-04-24 19:43 -43.34025 172.64852 6822 ft 286 kts 18°
2026-04-24 19:43 -43.32135 172.65790 7607 ft 292 kts 18°
2026-04-24 19:43 -43.30207 172.66743 8409 ft 297 kts 18°
2026-04-24 19:44 -43.28238 172.67714 9206 ft 303 kts 19°
2026-04-24 19:44 -43.26239 172.68700 9995 ft 308 kts 19°
2026-04-24 19:44 -43.24164 172.69726 10403 ft 328 kts 19°
2026-04-24 19:44 -43.21940 172.70826 10627 ft 351 kts 19°
2026-04-24 19:45 -43.19586 172.71989 10967 ft 367 kts 19°
2026-04-24 19:45 -43.17167 172.73182 11597 ft 373 kts 19°
2026-04-24 19:45 -43.14711 172.74393 12274 ft 377 kts 19°
2026-04-24 19:45 -43.12269 172.75599 12934 ft 381 kts 19°
2026-04-24 19:46 -43.09758 172.76836 13601 ft 385 kts 19°
2026-04-24 19:46 -43.07223 172.78085 14237 ft 389 kts 19°
2026-04-24 19:46 -43.04627 172.79361 14840 ft 393 kts 19°
2026-04-24 19:46 -43.02080 172.80608 15427 ft 396 kts 19°
2026-04-24 19:47 -42.99443 172.81902 16030 ft 399 kts 19°
2026-04-24 19:47 -42.96862 172.83169 16606 ft 401 kts 20°
2026-04-24 19:47 -42.94226 172.84464 17187 ft 405 kts 20°
2026-04-24 19:47 -42.91567 172.85771 17776 ft 408 kts 20°
2026-04-24 19:48 -42.88886 172.87084 18373 ft 411 kts 20°
2026-04-24 19:48 -42.86186 172.88402 18908 ft 414 kts 20°
2026-04-24 19:48 -42.80714 172.91071 19939 ft 421 kts 20°
2026-04-24 19:49 -42.75165 172.93771 20982 ft 427 kts 20°
2026-04-24 19:49 -42.69538 172.96509 21945 ft 432 kts 20°
2026-04-24 19:50 -42.60950 173.00673 23321 ft 441 kts 20°
2026-04-24 19:50 -42.58046 173.02081 23783 ft 444 kts 20°
2026-04-24 19:51 -42.52184 173.04913 24566 ft 450 kts 20°
2026-04-24 19:51 -42.49225 173.06336 24957 ft 452 kts 20°
2026-04-24 19:52 -42.43270 173.09204 25716 ft 457 kts 20°
2026-04-24 19:52 -42.40267 173.10649 26087 ft 459 kts 20°
2026-04-24 19:52 -42.37250 173.12100 26472 ft 461 kts 20°
2026-04-24 19:52 -42.34224 173.13555 26858 ft 463 kts 20°
2026-04-24 19:53 -42.31178 173.15013 27223 ft 465 kts 20°
2026-04-24 19:53 -42.28116 173.16476 27573 ft 468 kts 20°
2026-04-24 19:53 -42.21945 173.19420 28280 ft 473 kts 20°
2026-04-24 19:54 -42.18839 173.20904 28647 ft 475 kts 20°
2026-04-24 19:54 -42.15753 173.22373 29005 ft 477 kts 20°
2026-04-24 19:54 -42.12620 173.23864 29352 ft 479 kts 20°
2026-04-24 19:54 -42.09475 173.25364 29789 ft 479 kts 20°
2026-04-24 19:55 -42.07349 173.26377 30139 ft 478 kts 20°
2026-04-24 19:55 -42.03203 173.28353 30771 ft 477 kts 20°
2026-04-24 19:55 -42.00079 173.29840 31171 ft 476 kts 21°
2026-04-24 19:55 -41.96954 173.31328 31569 ft 476 kts 21°
2026-04-24 19:56 -41.93830 173.32813 31978 ft 476 kts 21°
2026-04-24 19:56 -41.90707 173.34291 32393 ft 476 kts 21°
2026-04-24 19:56 -41.87587 173.35762 32790 ft 475 kts 21°
2026-04-24 19:56 -41.84464 173.37230 33190 ft 475 kts 21°
2026-04-24 19:57 -41.81346 173.38696 33579 ft 475 kts 21°
2026-04-24 19:57 -41.78230 173.40162 33986 ft 475 kts 21°
2026-04-24 19:57 -41.75117 173.41628 34418 ft 474 kts 21°
2026-04-24 19:57 -41.72010 173.43095 34786 ft 473 kts 21°
2026-04-24 19:58 -41.68915 173.44557 35169 ft 472 kts 22°
2026-04-24 19:58 -41.65832 173.46052 35537 ft 470 kts 22°
2026-04-24 19:58 -41.62765 173.47574 35896 ft 469 kts 22°
2026-04-24 19:58 -41.59713 173.49105 36244 ft 468 kts 22°
2026-04-24 19:59 -41.56672 173.50636 36596 ft 467 kts 23°
2026-04-24 19:59 -41.53636 173.52160 36954 ft 465 kts 22°
2026-04-24 19:59 -41.50603 173.53671 37271 ft 465 kts 22°
2026-04-24 20:00 -41.44506 173.56689 37331 ft 469 kts 22°
2026-04-24 20:00 -41.38371 173.59716 37333 ft 470 kts 22°
2026-04-24 20:01 -41.32250 173.62719 37330 ft 468 kts 22°
2026-04-24 20:01 -41.26132 173.65716 37329 ft 468 kts 22°
2026-04-24 20:02 -41.21017 173.68219 37325 ft 468 kts 22°
2026-04-24 20:02 -41.13910 173.71702 37332 ft 468 kts 22°
2026-04-24 20:03 -41.07798 173.74693 37332 ft 468 kts 22°
2026-04-24 20:03 -41.01693 173.77666 37335 ft 467 kts 22°
2026-04-24 20:04 -40.95583 173.80633 37337 ft 467 kts 22°
2026-04-24 20:04 -40.89479 173.83594 37342 ft 467 kts 22°
2026-04-24 20:05 -40.83377 173.86549 37341 ft 467 kts 22°
2026-04-24 20:05 -40.77274 173.89501 37338 ft 467 kts 22°
2026-04-24 20:06 -40.71170 173.92443 37352 ft 467 kts 22°
2026-04-24 20:06 -40.65104 173.95359 37348 ft 467 kts 22°
2026-04-24 20:07 -40.59985 173.97818 37346 ft 468 kts 22°
2026-04-24 20:07 -40.52884 174.01232 37346 ft 468 kts 22°
2026-04-24 20:08 -40.46772 174.04158 37345 ft 468 kts 22°
2026-04-24 20:08 -40.40654 174.07073 37348 ft 467 kts 22°
2026-04-24 20:09 -40.34548 174.09983 37344 ft 467 kts 22°
2026-04-24 20:09 -40.28436 174.12892 37353 ft 467 kts 22°
2026-04-24 20:10 -40.22322 174.15799 37352 ft 467 kts 22°
2026-04-24 20:10 -40.16213 174.18700 37351 ft 467 kts 22°
2026-04-24 20:11 -40.10103 174.21590 37357 ft 467 kts 22°
2026-04-24 20:11 -40.05026 174.23989 37360 ft 467 kts 22°
2026-04-24 20:12 -39.98923 174.26862 37360 ft 466 kts 22°
2026-04-24 20:12 -39.92824 174.29730 37368 ft 466 kts 22°
2026-04-24 20:13 -39.86728 174.32597 37368 ft 466 kts 22°
2026-04-24 20:13 -39.80636 174.35458 37365 ft 465 kts 22°
2026-04-24 20:14 -39.74545 174.38310 37371 ft 465 kts 22°
2026-04-24 20:14 -39.68452 174.41151 37375 ft 465 kts 22°
2026-04-24 20:15 -39.62366 174.43993 37376 ft 465 kts 22°
2026-04-24 20:15 -39.56284 174.46827 37376 ft 464 kts 22°
2026-04-24 20:16 -39.50200 174.49647 37381 ft 464 kts 22°
2026-04-24 20:16 -39.44123 174.52466 37391 ft 464 kts 21°
2026-04-24 20:17 -39.38090 174.55259 37390 ft 463 kts 21°
2026-04-24 20:17 -39.31990 174.58078 37260 ft 463 kts 22°
2026-04-24 20:17 -39.29000 174.59457 37000 ft 462 kts 22°
2026-04-24 20:18 -39.26954 174.60398 36818 ft 462 kts 22°
2026-04-24 20:18 -39.22947 174.62241 36481 ft 462 kts 22°
2026-04-24 20:18 -39.19921 174.63633 36220 ft 461 kts 22°
2026-04-24 20:18 -39.16903 174.65021 35445 ft 462 kts 22°
2026-04-24 20:19 -39.13873 174.66415 34618 ft 463 kts 23°
2026-04-24 20:19 -39.10835 174.67809 33652 ft 465 kts 23°
2026-04-24 20:19 -39.07789 174.69206 32716 ft 465 kts 23°
2026-04-24 20:19 -39.04739 174.70606 31761 ft 466 kts 23°
2026-04-24 20:20 -39.01688 174.72004 30847 ft 465 kts 23°
2026-04-24 20:20 -38.98631 174.73400 29678 ft 468 kts 23°
2026-04-24 20:20 -38.95593 174.74781 29062 ft 457 kts 23°
2026-04-24 20:20 -38.92613 174.76136 27812 ft 453 kts 23°
2026-04-24 20:21 -38.89656 174.77482 26858 ft 445 kts 23°
2026-04-24 20:21 -38.86792 174.78779 26362 ft 429 kts 23°
2026-04-24 20:21 -38.83997 174.80045 25821 ft 425 kts 23°
2026-04-24 20:21 -38.81235 174.81339 25304 ft 421 kts 24°
2026-04-24 20:22 -38.78530 174.82740 24804 ft 417 kts 26°
2026-04-24 20:22 -38.75880 174.84211 24334 ft 414 kts 27°
2026-04-24 20:22 -38.73259 174.85709 23841 ft 411 kts 27°
2026-04-24 20:22 -38.70658 174.87196 23340 ft 407 kts 27°
2026-04-24 20:23 -38.68080 174.88647 22884 ft 403 kts 27°
2026-04-24 20:23 -38.65555 174.90049 22424 ft 399 kts 26°
2026-04-24 20:23 -38.63019 174.91442 21950 ft 395 kts 26°
2026-04-24 20:23 -38.60506 174.92814 21486 ft 391 kts 26°
2026-04-24 20:24 -38.58011 174.94173 21025 ft 388 kts 26°
2026-04-24 20:24 -38.55538 174.95517 20530 ft 385 kts 26°
2026-04-24 20:24 -38.53077 174.96852 20044 ft 383 kts 26°
2026-04-24 20:24 -38.50633 174.98179 19559 ft 381 kts 26°
2026-04-24 20:25 -38.48203 174.99501 19058 ft 379 kts 26°
2026-04-24 20:25 -38.45788 175.00816 18546 ft 377 kts 26°
2026-04-24 20:25 -38.43380 175.02127 18009 ft 375 kts 26°
2026-04-24 20:25 -38.40993 175.03429 17509 ft 371 kts 25°
2026-04-24 20:26 -38.38630 175.04717 17018 ft 369 kts 25°
2026-04-24 20:26 -38.36277 175.05994 16512 ft 366 kts 25°
2026-04-24 20:26 -38.33939 175.07261 16011 ft 364 kts 25°
2026-04-24 20:26 -38.31617 175.08519 15526 ft 362 kts 25°
2026-04-24 20:27 -38.29310 175.09769 15031 ft 360 kts 25°
2026-04-24 20:27 -38.27013 175.11012 14470 ft 359 kts 25°
2026-04-24 20:27 -38.24688 175.12272 13680 ft 365 kts 25°
2026-04-24 20:27 -38.22301 175.13340 13177 ft 362 kts 15°
2026-04-24 20:28 -38.19853 175.14047 12679 ft 359 kts 14°
2026-04-24 20:28 -38.17429 175.14739 12185 ft 356 kts 14°
2026-04-24 20:28 -38.15023 175.15427 11697 ft 353 kts 14°
2026-04-24 20:28 -38.12634 175.16110 11211 ft 350 kts 14°
2026-04-24 20:29 -38.11030 175.16571 10884 ft 349 kts 14°
2026-04-24 20:29 -38.07909 175.17467 10387 ft 343 kts 14°
2026-04-24 20:29 -38.05626 175.18118 10267 ft 330 kts 14°
2026-04-24 20:29 -38.03423 175.18747 10136 ft 319 kts 14°
2026-04-24 20:30 -38.01295 175.19356 10000 ft 309 kts 14°
2026-04-24 20:30 -37.99224 175.19950 9765 ft 301 kts 14°
2026-04-24 20:30 -37.97199 175.20560 9163 ft 298 kts 16°
2026-04-24 20:30 -37.95208 175.21254 8580 ft 295 kts 17°
2026-04-24 20:31 -37.93255 175.21979 8087 ft 289 kts 18°
2026-04-24 20:31 -37.91342 175.22701 7621 ft 285 kts 18°
2026-04-24 20:31 -37.89448 175.23416 7173 ft 283 kts 18°
2026-04-24 20:31 -37.87555 175.24125 6724 ft 286 kts 17°
2026-04-24 20:32 -37.85653 175.24827 6448 ft 282 kts 17°
2026-04-24 20:32 -37.83772 175.25516 6113 ft 281 kts 17°
2026-04-24 20:32 -37.81893 175.26199 5781 ft 280 kts 17°
2026-04-24 20:32 -37.80044 175.26871 5327 ft 275 kts 17°
2026-04-24 20:33 -37.78214 175.27534 4700 ft 272 kts 17°
2026-04-24 20:33 -37.76435 175.28179 4360 ft 255 kts 17°
2026-04-24 20:33 -37.74808 175.28773 4222 ft 232 kts 17°
2026-04-24 20:33 -37.73302 175.29322 4159 ft 221 kts 17°
2026-04-24 20:34 -37.72017 175.30232 4016 ft 210 kts 51°
2026-04-24 20:34 -37.71454 175.31879 3866 ft 201 kts 86°
2026-04-24 20:34 -37.71663 175.33603 3560 ft 201 kts 106°
2026-04-24 20:34 -37.72050 175.35310 3271 ft 202 kts 107°
2026-04-24 20:35 -37.72601 175.36886 3001 ft 193 kts 130°
2026-04-24 20:35 -37.73732 175.37694 2642 ft 190 kts 172°
2026-04-24 20:35 -37.75011 175.37466 2338 ft 185 kts 197°
2026-04-24 20:35 -37.76230 175.37003 2048 ft 181 kts 196°
2026-04-24 20:36 -37.77411 175.36574 1800 ft 169 kts 196°
2026-04-24 20:36 -37.78473 175.36183 1602 ft 148 kts 196°
2026-04-24 20:36 -37.79420 175.35841 1395 ft 140 kts 195°
2026-04-24 20:36 -37.80360 175.35502 1230 ft 137 kts 195°
2026-04-24 20:37 -37.81276 175.35172 1058 ft 136 kts 195°
2026-04-24 20:37 -37.82184 175.34842 875 ft 135 kts 195°
2026-04-24 20:37 -37.83088 175.34520 718 ft 135 kts 195°
2026-04-24 20:37 -37.83993 175.34195 545 ft 135 kts 195°
2026-04-24 20:38 -37.84894 175.33867 355 ft 134 kts 195°
2026-04-24 20:38 -37.85790 175.33540 182 ft 132 kts 195°
2026-04-24 20:38 -37.86533 175.33272 173 ft 87 kts 196°
2026-04-24 20:38 -37.86951 175.33118 171 ft 41 kts 195°
2026-04-24 20:39 -37.87168 175.33045 171 ft 25 kts 196°
2026-04-24 20:39 -37.87339 175.32987 172 ft 22 kts 198°
2026-04-24 20:39 -37.87439 175.32970 171 ft 13 kts 154°
2026-04-24 20:39 -37.87456 175.32938 171 ft 8 kts 339°
2026-04-24 20:40 -37.87379 175.32966 172 ft 15 kts 17°
2026-04-24 20:40 -37.87262 175.33008 171 ft 20 kts 15°
2026-04-24 20:40 -37.87114 175.33057 171 ft 23 kts 18°
2026-04-24 20:40 -37.86949 175.33122 171 ft 26 kts 17°
2026-04-24 20:41 -37.86762 175.33190 172 ft 29 kts 15°
2026-04-24 20:41 -37.86589 175.33254 172 ft 19 kts 17°
2026-04-24 20:41 -37.86531 175.33287 173 ft 5 kts 66°
2026-04-24 20:41 -37.86538 175.33340 173 ft 8 kts 107°
2026-04-24 20:42 -37.86560 175.33437 172 ft 13 kts 105°
2026-04-24 20:42 -37.86567 175.33467 172 ft 0 kts 106°
2026-04-24 20:43 -37.86568 175.33471 172 ft 2 kts 106°
2026-04-24 20:43 -37.86577 175.33511 172 ft 7 kts 106°
2026-04-24 20:43 -37.86599 175.33552 172 ft 0 kts 149°